Content
SEND FEEDBACK

Daily
Averages
Monthly
Summary
United States of America

BARTON HILLS, MICHIGAN


Home > North America > United States > Michigan
Elevation: 899 feet     Latitude: 42 18N     Longitude: 083 43W

WEATHER
 
SELECT A DAY
Number of Records: 206,347;   Date Range: 1/1/95 - 10/1/14
 
SHARE

PRINT THIS DATA

[ ← Previous Day ]
WEATHER ALMANAC - APRIL 17, 2013
[ Next Day → ]
[ °C ]   °F
Weather ElementAverageHighLow
Temperature47.8 °F57 °F (2:53 pm)41 °F (6:53 am)
Dewpoint37.4 °F43 °F (5:53 pm)28.9 °F (4:53 am)
Humidity69.1 %89 % (10:53 pm)43 % (11:53 am)
Barometer30.20 in30.34 in (6:53 am)30.05 in (11:53 pm)
Wind Speed9.7 mph13.8 mph (11:53 pm)
Wind Gust20.7 mph (11:53 pm)
Weather ElementAverage
Visibility8.5 mi
Wind DirectionE (88.5 °)

Weather ElementTotal
Precipitation1.96 in
Heating Degree Days16 (Base 65)
Averaged from 34 records on April 17, 2013
WEATHER CONDITIONS BREAKOUT
WIND DIRECTION BREAKOUT
WEATHER BY HOUR - APRIL 17, 2013
[ °C ]   °F
Local TimeTemperatureDewpointHumidityBarometerVisibilityWind DirectionWind SpeedGust SpeedPrecipitationEventsConditions
1:53 AM48.0 °F36.0 °F63 %30.26 in10.0 miENE (60°)9.2 mphMostly Cloudy
2:53 AM46.0 °F32.0 °F58 %30.28 in10.0 miENE (60°)11.5 mph18.4 mphMostly Cloudy
3:53 AM44.1 °F30.0 °F58 %30.30 in10.0 miNE (50°)11.5 mphOvercast
4:53 AM43.0 °F28.9 °F58 %30.30 in10.0 miNE (50°)9.2 mph19.6 mphOvercast
5:53 AM42.1 °F28.9 °F60 %30.31 in10.0 miENE (60°)8.1 mphMostly Cloudy
6:53 AM41.0 °F28.9 °F62 %30.34 in10.0 miNE (40°)9.2 mphClear
7:53 AM42.1 °F30.0 °F62 %30.33 in9.0 miNE (50°)6.9 mphClear
8:53 AM45.0 °F30.0 °F56 %30.33 in10.0 miENE (60°)9.2 mphClear
10:53 AM50.0 °F30.0 °F46 %30.32 in10.0 miEast (80°)9.2 mph18.4 mphClear
11:53 AM53.1 °F30.9 °F43 %30.31 in10.0 miEast (100°)11.5 mphClear
12:53 PM55.0 °F33.1 °F43 %30.30 in10.0 miESE (110°)11.5 mphScattered Clouds
1:53 PM54.0 °F33.1 °F45 %30.28 in10.0 miEast (80°)8.1 mph16.1 mphScattered Clouds
2:53 PM57.0 °F36.0 °F45 %30.24 in10.0 miESE (120°)10.4 mph18.4 mphClear
3:53 PM57.0 °F37.9 °F49 %30.19 in10.0 miEast (90°)12.7 mph19.6 mphOvercast
4:46 PM53.6 °F41.0 °F62 %30.18 in10.0 miEast (90°)10.4 mph0.00 inRain-ThunderstormLight Thunderstorms and Rain
4:53 PM52.0 °F42.1 °F69 %30.18 in7.0 miEast (100°)12.7 mph18.4 mph0.02 inRain-ThunderstormLight Thunderstorms and Rain
5:21 PM48.2 °F42.8 °F82 %30.16 in2.5 miSE (130°)11.5 mph16.1 mph0.14 inRain-ThunderstormHeavy Thunderstorms and Rain
5:30 PM48.2 °F42.8 °F82 %30.14 in9.0 miESE (110°)9.2 mph0.14 inRain-ThunderstormLight Rain
5:50 PM48.2 °F42.8 °F82 %30.13 in10.0 miESE (110°)10.4 mph0.14 inOvercast
5:53 PM48.9 °F43.0 °F80 %30.14 in10.0 miESE (110°)10.4 mph0.14 inOvercast
6:53 PM48.9 °F41.0 °F74 %30.13 in10.0 miEast (100°)10.4 mphOvercast
7:40 PM48.2 °F39.2 °F71 %30.12 in2.5 miEast (80°)4.6 mph0.08 inRain-ThunderstormLight Rain
7:53 PM48.0 °F39.9 °F74 %30.13 in10.0 miEast (90°)8.1 mph0.08 inThunderstormOvercast
8:04 PM48.2 °F39.2 °F71 %30.13 in10.0 miNE (50°)6.9 mphOvercast
8:44 PM46.4 °F42.8 °F87 %30.11 in10.0 miNE (50°)6.9 mph0.03 inRain-ThunderstormLight Rain
8:53 PM46.9 °F43.0 °F86 %30.15 in10.0 miNorth (360°)10.4 mph0.03 inRainLight Rain
9:07 PM46.4 °F42.8 °F87 %30.13 in10.0 miNE (50°)8.1 mph0.00 inRain-ThunderstormLight Rain
9:45 PM46.4 °F39.2 °F76 %30.10 in10.0 miENE (60°)11.5 mph0.01 inThunderstormOvercast
9:53 PM46.0 °F39.9 °F79 %30.14 in10.0 miENE (60°)9.2 mph18.4 mph0.02 inRain-ThunderstormLight Rain
10:21 PM44.6 °F41.0 °F87 %30.14 in2.5 miEast (100°)9.2 mph17.3 mph0.17 inRain-ThunderstormHeavy Thunderstorms and Rain
10:28 PM44.6 °F41.0 °F87 %30.14 in3.0 miEast (80°)10.4 mph0.21 inRain-ThunderstormHeavy Thunderstorms and Rain
10:53 PM44.1 °F41.0 °F89 %30.14 in3.0 miEast (100°)9.2 mph0.35 inRain-ThunderstormHeavy Thunderstorms and Rain
11:39 PM44.6 °F41.0 °F87 %30.06 in4.0 miEast (80°)6.9 mph16.1 mph0.19 inRainRain
11:53 PM44.1 °F41.0 °F89 %30.05 in5.0 miEast (90°)13.8 mph20.7 mph0.21 inRainLight Rain
Hourly data recorded from KARB, located miles away from Barton Hills, Michigan







STORIES FROM OUR PARTNERS